Time,TemperatureF,DewpointF,PressureIn,WindDirection,WindDirectionDegrees,WindSpeedMPH,WindSpeedGustMPH,Humidity,HourlyPrecipIn,Conditions,Clouds,dailyrainin,SolarRadiationWatts/m^2,SoftwareType,DateUTC
2013-05-18 00:09:00,45.3,41.0,30.11,NE,52,1.0,2.0,85,0.00,,,0.00,0,weatherlink.com 1.10,2013-05-18 04:09:00,
2013-05-18 00:24:00,46.7,42.0,30.11,NE,53,0.0,2.0,84,0.00,,,0.00,0,weatherlink.com 1.10,2013-05-18 04:24:00,
2013-05-18 00:39:00,48.9,43.0,30.11,SSE,167,1.0,4.0,80,0.00,,,0.00,0,weatherlink.com 1.10,2013-05-18 04:39:00,
2013-05-18 00:54:00,49.7,43.0,30.11,South,186,3.0,3.0,78,0.00,,,0.00,0,weatherlink.com 1.10,2013-05-18 04:54:00,
2013-05-18 01:09:00,50.2,43.0,30.11,South,186,1.0,2.0,77,0.00,,,0.00,0,weatherlink.com 1.10,2013-05-18 05:09:00,
2013-05-18 01:24:00,50.4,43.0,30.10,South,186,0.0,3.0,77,0.00,,,0.00,0,weatherlink.com 1.10,2013-05-18 05:24:00,
2013-05-18 01:39:00,50.0,43.0,30.10,South,186,0.0,2.0,78,0.00,,,0.00,0,weatherlink.com 1.10,2013-05-18 05:39:00,
2013-05-18 01:54:00,49.4,43.0,30.10,South,186,0.0,1.0,79,0.00,,,0.00,0,weatherlink.com 1.10,2013-05-18 05:54:00,
2013-05-18 02:09:00,49.1,43.0,30.10,South,186,0.0,0.0,80,0.00,,,0.00,0,weatherlink.com 1.10,2013-05-18 06:09:00,
2013-05-18 02:24:00,48.8,43.0,30.10,South,186,0.0,1.0,80,0.00,,,0.00,0,weatherlink.com 1.10,2013-05-18 06:24:00,
2013-05-18 02:39:00,48.3,42.0,30.10,South,186,0.0,1.0,80,0.00,,,0.00,0,weatherlink.com 1.10,2013-05-18 06:39:00,
2013-05-18 02:54:00,47.7,43.0,30.11,South,186,0.0,1.0,82,0.00,,,0.00,0,weatherlink.com 1.10,2013-05-18 06:54:00,
2013-05-18 03:09:00,47.8,43.0,30.11,South,186,0.0,2.0,82,0.00,,,0.00,0,weatherlink.com 1.10,2013-05-18 07:09:00,
2013-05-18 03:24:00,48.0,43.0,30.11,South,186,0.0,1.0,82,0.00,,,0.00,0,weatherlink.com 1.10,2013-05-18 07:24:00,
2013-05-18 03:39:00,47.9,43.0,30.11,South,186,1.0,1.0,82,0.00,,,0.00,0,weatherlink.com 1.10,2013-05-18 07:39:00,
2013-05-18 03:54:00,47.6,42.0,30.11,South,186,0.0,1.0,82,0.00,,,0.00,0,weatherlink.com 1.10,2013-05-18 07:54:00,
2013-05-18 04:09:00,47.7,43.0,30.11,South,186,0.0,0.0,84,0.00,,,0.00,0,weatherlink.com 1.10,2013-05-18 08:09:00,
2013-05-18 04:24:00,47.5,43.0,30.09,South,186,0.0,0.0,83,0.00,,,0.00,0,weatherlink.com 1.10,2013-05-18 08:24:00,
2013-05-18 04:39:00,47.0,42.0,30.09,South,186,0.0,0.0,84,0.00,,,0.00,0,weatherlink.com 1.10,2013-05-18 08:39:00,
2013-05-18 04:54:00,46.9,43.0,30.09,South,186,0.0,0.0,85,0.00,,,0.00,0,weatherlink.com 1.10,2013-05-18 08:54:00,
2013-05-18 05:09:00,47.3,43.0,30.09,South,186,0.0,1.0,85,0.00,,,0.00,0,weatherlink.com 1.10,2013-05-18 09:09:00,
2013-05-18 05:24:00,48.2,43.0,30.10,South,186,0.0,1.0,83,0.00,,,0.00,0,weatherlink.com 1.10,2013-05-18 09:24:00,
2013-05-18 05:39:00,49.2,44.0,30.09,South,186,0.0,4.0,81,0.00,,,0.00,0,weatherlink.com 1.10,2013-05-18 09:39:00,
2013-05-18 05:54:00,49.6,44.0,30.09,South,186,0.0,0.0,81,0.00,,,0.00,0,weatherlink.com 1.10,2013-05-18 09:54:00,
2013-05-18 06:09:00,49.9,44.0,30.08,South,186,0.0,2.0,80,0.00,,,0.00,0,weatherlink.com 1.10,2013-05-18 10:09:00,
2013-05-18 06:24:00,49.9,44.0,30.08,South,186,0.0,0.0,81,0.00,,,0.00,7,weatherlink.com 1.10,2013-05-18 10:24:00,
2013-05-18 06:39:00,49.9,45.0,30.08,South,186,0.0,0.0,82,0.00,,,0.00,9,weatherlink.com 1.10,2013-05-18 10:39:00,
2013-05-18 06:54:00,49.9,45.0,30.08,South,186,0.0,0.0,84,0.00,,,0.00,7,weatherlink.com 1.10,2013-05-18 10:54:00,
2013-05-18 07:09:00,50.0,45.0,30.09,South,186,0.0,1.0,84,0.00,,,0.00,9,weatherlink.com 1.10,2013-05-18 11:09:00,
2013-05-18 07:24:00,50.0,45.0,30.09,South,186,0.0,0.0,84,0.00,,,0.00,9,weatherlink.com 1.10,2013-05-18 11:24:00,
2013-05-18 07:39:00,50.0,46.0,30.09,South,186,0.0,0.0,85,0.00,,,0.00,23,weatherlink.com 1.10,2013-05-18 11:39:00,
2013-05-18 07:54:00,50.3,46.0,30.10,South,186,0.0,0.0,85,0.00,,,0.00,28,weatherlink.com 1.10,2013-05-18 11:54:00,
2013-05-18 08:09:00,50.7,46.0,30.10,South,186,0.0,2.0,84,0.00,,,0.00,19,weatherlink.com 1.10,2013-05-18 12:09:00,
2013-05-18 08:24:00,51.4,46.0,30.10,South,186,0.0,0.0,83,0.00,,,0.00,18,weatherlink.com 1.10,2013-05-18 12:24:00,
2013-05-18 08:39:00,52.2,47.0,30.10,South,186,0.0,3.0,82,0.00,,,0.00,18,weatherlink.com 1.10,2013-05-18 12:39:00,
2013-05-18 08:55:00,53.0,47.0,30.10,SW,215,2.0,6.0,81,0.00,,,0.00,30,weatherlink.com 1.10,2013-05-18 12:55:00,
2013-05-18 09:10:00,53.6,47.0,30.10,SSW,205,2.0,5.0,79,0.00,,,0.00,37,weatherlink.com 1.10,2013-05-18 13:10:00,
2013-05-18 09:25:00,54.3,48.0,30.10,SSW,205,0.0,3.0,78,0.00,,,0.00,60,weatherlink.com 1.10,2013-05-18 13:25:00,
2013-05-18 09:40:00,55.0,47.0,30.09,SSW,205,2.0,3.0,75,0.00,,,0.00,72,weatherlink.com 1.10,2013-05-18 13:40:00,
2013-05-18 09:55:00,55.5,47.0,30.09,SSE,148,3.0,4.0,74,0.00,,,0.00,95,weatherlink.com 1.10,2013-05-18 13:55:00,
2013-05-18 10:10:00,56.1,48.0,30.09,SSE,163,2.0,6.0,74,0.00,,,0.00,116,weatherlink.com 1.10,2013-05-18 14:10:00,
2013-05-18 10:25:00,56.7,47.0,30.08,SSE,163,1.0,5.0,71,0.00,,,0.00,116,weatherlink.com 1.10,2013-05-18 14:25:00,
2013-05-18 10:40:00,57.2,49.0,30.08,SSE,166,1.0,6.0,73,0.00,,,0.00,130,weatherlink.com 1.10,2013-05-18 14:40:00,
2013-05-18 10:55:00,57.5,49.0,30.08,SSE,166,3.0,5.0,73,0.00,,,0.00,120,weatherlink.com 1.10,2013-05-18 14:55:00,
2013-05-18 11:10:00,57.8,49.0,30.08,South,173,3.0,7.0,72,0.00,,,0.00,81,weatherlink.com 1.10,2013-05-18 15:10:00,
2013-05-18 11:25:00,57.9,49.0,30.07,South,169,6.0,10.0,72,0.00,,,0.00,77,weatherlink.com 1.10,2013-05-18 15:25:00,
2013-05-18 11:40:00,57.7,50.0,30.07,South,171,5.0,5.0,75,0.00,,,0.00,165,weatherlink.com 1.10,2013-05-18 15:40:00,
2013-05-18 11:55:00,58.3,50.0,30.07,South,177,2.0,5.0,74,0.00,,,0.00,65,weatherlink.com 1.10,2013-05-18 15:55:00,
2013-05-18 12:10:00,58.6,50.0,30.06,South,171,2.0,4.0,73,0.00,,,0.00,72,weatherlink.com 1.10,2013-05-18 16:10:00,
2013-05-18 12:25:00,59.0,50.0,30.06,South,172,1.0,3.0,72,0.00,,,0.00,77,weatherlink.com 1.10,2013-05-18 16:25:00,
2013-05-18 12:40:00,59.6,50.0,30.06,South,175,2.0,4.0,71,0.00,,,0.00,107,weatherlink.com 1.10,2013-05-18 16:40:00,
2013-05-18 12:55:00,60.5,47.0,30.05,SSE,164,5.0,8.0,62,0.00,,,0.00,163,weatherlink.com 1.10,2013-05-18 16:55:00,
2013-05-18 13:10:00,60.7,48.0,30.05,South,188,4.0,11.0,64,0.00,,,0.00,65,weatherlink.com 1.10,2013-05-18 17:10:00,
2013-05-18 13:25:00,60.5,49.0,30.05,South,172,3.0,7.0,65,0.00,,,0.00,70,weatherlink.com 1.10,2013-05-18 17:25:00,
2013-05-18 13:40:00,60.6,49.0,30.04,SSE,154,5.0,6.0,66,0.00,,,0.00,72,weatherlink.com 1.10,2013-05-18 17:40:00,
2013-05-18 13:55:00,60.5,48.0,30.04,SSE,153,6.0,9.0,64,0.00,,,0.00,44,weatherlink.com 1.10,2013-05-18 17:55:00,
2013-05-18 14:10:00,60.5,48.0,30.04,SSW,194,3.0,8.0,63,0.00,,,0.00,46,weatherlink.com 1.10,2013-05-18 18:10:00,
2013-05-18 14:25:00,60.4,47.0,30.03,South,180,2.0,8.0,61,0.00,,,0.00,47,weatherlink.com 1.10,2013-05-18 18:25:00,
2013-05-18 14:40:00,60.5,47.0,30.02,South,184,5.0,8.0,62,0.00,,,0.00,97,weatherlink.com 1.10,2013-05-18 18:40:00,
2013-05-18 14:55:00,61.2,48.0,30.02,South,173,1.0,5.0,62,0.00,,,0.00,188,weatherlink.com 1.10,2013-05-18 18:55:00,
2013-05-18 15:10:00,62.3,46.0,30.01,SSE,156,6.0,11.0,56,0.00,,,0.00,207,weatherlink.com 1.10,2013-05-18 19:10:00,
2013-05-18 15:25:00,62.8,46.0,30.01,SSW,204,4.0,10.0,55,0.00,,,0.00,146,weatherlink.com 1.10,2013-05-18 19:25:00,
2013-05-18 15:41:00,62.8,46.0,30.00,SSW,206,5.0,9.0,54,0.00,,,0.00,116,weatherlink.com 1.10,2013-05-18 19:41:00,
2013-05-18 15:56:00,62.8,47.0,30.00,South,182,5.0,10.0,56,0.00,,,0.00,137,weatherlink.com 1.10,2013-05-18 19:56:00,
2013-05-18 16:11:00,62.7,47.0,30.00,South,175,6.0,11.0,57,0.00,,,0.00,118,weatherlink.com 1.10,2013-05-18 20:11:00,
2013-05-18 16:26:00,62.7,47.0,29.99,South,184,3.0,8.0,58,0.00,,,0.00,97,weatherlink.com 1.10,2013-05-18 20:26:00,
2013-05-18 16:41:00,62.5,48.0,29.98,SSE,163,4.0,9.0,59,0.00,,,0.00,51,weatherlink.com 1.10,2013-05-18 20:41:00,
2013-05-18 16:56:00,62.2,49.0,29.98,South,173,3.0,5.0,62,0.00,,,0.00,72,weatherlink.com 1.10,2013-05-18 20:56:00,
2013-05-18 17:11:00,61.9,50.0,29.97,SSE,153,0.0,3.0,65,0.00,,,0.00,70,weatherlink.com 1.10,2013-05-18 21:11:00,
2013-05-18 17:26:00,61.7,52.0,29.97,SSE,153,0.0,2.0,70,0.00,,,0.00,69,weatherlink.com 1.10,2013-05-18 21:26:00,
2013-05-18 17:41:00,61.6,53.0,29.96,South,172,0.0,1.0,73,0.00,,,0.00,130,weatherlink.com 1.10,2013-05-18 21:41:00,
2013-05-18 17:56:00,62.3,51.0,29.96,South,172,0.0,2.0,67,0.00,,,0.00,141,weatherlink.com 1.10,2013-05-18 21:56:00,
2013-05-18 18:11:00,63.0,49.0,29.96,South,188,2.0,4.0,61,0.00,,,0.00,74,weatherlink.com 1.10,2013-05-18 22:11:00,
2013-05-18 18:26:00,63.3,49.0,29.95,SSE,167,3.0,7.0,59,0.00,,,0.00,62,weatherlink.com 1.10,2013-05-18 22:26:00,
2013-05-18 18:41:00,63.4,48.0,29.95,South,182,2.0,4.0,58,0.00,,,0.00,51,weatherlink.com 1.10,2013-05-18 22:41:00,
2013-05-18 18:56:00,63.4,49.0,29.94,SSE,148,2.0,6.0,59,0.00,,,0.00,53,weatherlink.com 1.10,2013-05-18 22:56:00,
2013-05-18 19:11:00,63.6,48.0,29.94,SSE,162,1.0,7.0,57,0.00,,,0.00,53,weatherlink.com 1.10,2013-05-18 23:11:00,
2013-05-18 19:26:00,63.7,48.0,29.95,South,184,2.0,4.0,58,0.00,,,0.00,37,weatherlink.com 1.10,2013-05-18 23:26:00,
2013-05-18 19:41:00,63.6,48.0,29.95,South,175,0.0,7.0,58,0.00,,,0.00,35,weatherlink.com 1.10,2013-05-18 23:41:00,
2013-05-18 19:56:00,63.2,48.0,29.95,South,172,3.0,8.0,59,0.00,,,0.00,28,weatherlink.com 1.10,2013-05-18 23:56:00,
2013-05-18 20:11:00,62.6,48.0,29.95,South,170,2.0,7.0,60,0.00,,,0.00,19,weatherlink.com 1.10,2013-05-19 00:11:00,
2013-05-18 20:26:00,62.2,48.0,29.95,SSW,197,2.0,7.0,61,0.00,,,0.00,12,weatherlink.com 1.10,2013-05-19 00:26:00,
2013-05-18 20:41:00,61.9,48.0,29.95,SSE,166,1.0,8.0,61,0.00,,,0.00,9,weatherlink.com 1.10,2013-05-19 00:41:00,
2013-05-18 20:56:00,61.7,48.0,29.94,SSE,151,1.0,6.0,61,0.00,,,0.00,0,weatherlink.com 1.10,2013-05-19 00:56:00,
2013-05-18 21:11:00,61.4,49.0,29.93,SSE,167,6.0,9.0,63,0.00,,,0.00,0,weatherlink.com 1.10,2013-05-19 01:11:00,
2013-05-18 21:26:00,61.2,49.0,29.93,SW,228,2.0,7.0,64,0.00,,,0.00,0,weatherlink.com 1.10,2013-05-19 01:26:00,
2013-05-18 21:41:00,60.9,49.0,29.93,South,179,2.0,9.0,64,0.00,,,0.00,0,weatherlink.com 1.10,2013-05-19 01:41:00,
2013-05-18 21:56:00,60.8,48.0,29.92,South,180,4.0,7.0,64,0.00,,,0.00,0,weatherlink.com 1.10,2013-05-19 01:56:00,
2013-05-18 22:11:00,60.8,49.0,29.92,South,169,2.0,6.0,65,0.00,,,0.00,0,weatherlink.com 1.10,2013-05-19 02:11:00,
2013-05-18 22:26:00,60.7,49.0,29.92,SSE,166,2.0,8.0,65,0.00,,,0.00,0,weatherlink.com 1.10,2013-05-19 02:26:00,
2013-05-18 22:41:00,60.6,49.0,29.92,WSW,249,1.0,8.0,66,0.00,,,0.00,0,weatherlink.com 1.10,2013-05-19 02:41:00,
2013-05-18 22:56:00,60.5,49.0,29.91,South,170,3.0,5.0,66,0.00,,,0.00,0,weatherlink.com 1.10,2013-05-19 02:56:00,
2013-05-18 23:11:00,60.3,49.0,29.91,SSW,195,1.0,5.0,67,0.00,,,0.00,0,weatherlink.com 1.10,2013-05-19 03:11:00,
2013-05-18 23:26:00,60.0,49.0,29.90,South,173,0.0,4.0,68,0.00,,,0.00,0,weatherlink.com 1.10,2013-05-19 03:26:00,
2013-05-18 23:41:00,59.7,49.0,29.90,SSW,192,2.0,5.0,69,0.00,,,0.00,0,weatherlink.com 1.10,2013-05-19 03:41:00,
2013-05-18 23:56:00,59.9,49.0,29.90,SSE,168,3.0,7.0,68,0.00,,,0.00,0,weatherlink.com 1.10,2013-05-19 03:56:00,